Location: Iesi
(43.5167°N, 13.2333°E)
Time: 01:23:28
(UTC+00:00)

Cosmos 2219 Rocket - Pass Details

Date: 08 August 2020
Orbit: 826 x 848 km, 71.0° (Epoch: 27 September)

Event Time Altitude Azimuth Distance (km) Brightness Sun altitude
Rises 21:47:43 0° 344° (NNW) 3,414 6.6 -27.6°
Reaches altitude 10° 21:50:47 10° 359° (N) 2,477 5.5 -27.8°
Maximum altitude 21:55:06 22° 49° (NE) 1,786 4.0 -28.1°
Enters shadow 21:56:39 20° 71° (ENE) 1,890 4.0 -28.2°
